| time (UTC) | temp C | wind direction | speed KPH | gust KPH | rain 1hr cm | rain 24hr cm | rain mn cm | humidity % | barometer mb |
| 20260510071024 | 9 | 140 | 9.7 | 17.7 | 0.00 | 0.43 | 0.00 | 95 | 1005.3 |
| 20260510070020 | 9 | 210 | 8.0 | 14.5 | 0.00 | 0.43 | 0.00 | 95 | 1005.2 |
| 20260510065019 | 10 | 265 | 6.4 | 22.5 | 0.00 | 0.43 | 0.00 | 95 | 1005.3 |
| 20260510064023 | 10 | 176 | 9.7 | 14.5 | 0.00 | 0.43 | 0.00 | 94 | 1005.0 |
| 20260510063035 | 10 | 106 | 9.7 | 22.5 | 0.00 | 0.43 | 0.00 | 94 | 1005.0 |
| 20260510062024 | 10 | 90 | 3.2 | 9.7 | 0.00 | 0.43 | 0.00 | 93 | 1005.0 |
| 20260510060022 | 10 | 129 | 4.8 | 12.9 | 0.00 | 0.43 | 0.00 | 93 | 1004.9 |
| 20260510054019 | 10 | 151 | 16.1 | 22.5 | 0.00 | 0.43 | 0.00 | 94 | 1004.8 |
| 20260510053027 | 10 | 185 | 12.9 | 27.4 | 0.00 | 0.43 | 0.00 | 94 | 1004.7 |
| 20260510052021 | 10 | 160 | 12.9 | 33.8 | 0.00 | 0.43 | 0.00 | 94 | 1004.5 |
| 20260510051025 | 10 | 41 | 6.4 | 12.9 | 0.00 | 0.43 | 0.00 | 94 | 1004.5 |
| 20260510045022 | 11 | 184 | 11.3 | 14.5 | 0.00 | 0.43 | 0.00 | 94 | 1004.3 |
| 20260510044025 | 11 | 137 | 8.0 | 14.5 | 0.00 | 0.43 | 0.00 | 94 | 1003.9 |
| 20260510043020 | 11 | 147 | 9.7 | 22.5 | 0.00 | 0.43 | 0.00 | 94 | 1003.7 |
| 20260510042128 | 11 | 77 | 9.7 | 17.7 | 0.00 | 0.43 | 0.00 | 94 | 1003.7 |
| 20260510041020 | 11 | 231 | 6.4 | 19.3 | 0.00 | 0.43 | 0.00 | 94 | 1003.5 |
| 20260510040025 | 11 | 180 | 6.4 | 19.3 | 0.00 | 0.43 | 0.00 | 93 | 1003.3 |
| 20260510035026 | 11 | 190 | 9.7 | 17.7 | 0.03 | 0.43 | 0.43 | 93 | 1003.5 |
| 20260510034023 | 11 | 220 | 6.4 | 14.5 | 0.10 | 0.43 | 0.43 | 92 | 1003.5 |
| 20260510033026 | 12 | 140 | 9.7 | 12.9 | 0.25 | 0.43 | 0.43 | 92 | 1003.5 |
| 20260510032020 | 12 | 169 | 14.5 | 24.1 | 0.41 | 0.43 | 0.43 | 92 | 1003.5 |
| 20260510031029 | 12 | 192 | 16.1 | 32.2 | 0.43 | 0.43 | 0.43 | 91 | 1003.5 |
| 20260510030036 | 12 | 195 | 17.7 | 29.0 | 0.43 | 0.43 | 0.43 | 90 | 1003.2 |
| 20260510025022 | 12 | 202 | 19.3 | 32.2 | 0.41 | 0.41 | 0.41 | 89 | 1003.5 |
| 20260510024027 | 12 | 177 | 17.7 | 27.4 | 0.33 | 0.33 | 0.33 | 87 | 1003.5 |
| 20260510023123 | 12 | 188 | 14.5 | 24.1 | 0.18 | 0.18 | 0.18 | 85 | 1003.4 |
| 20260510022120 | 13 | 203 | 17.7 | 27.4 | 0.03 | 0.03 | 0.03 | 81 | 1003.1 |
| 20260510020022 | 14 | 197 | 16.1 | 27.4 | 0.00 | 0.00 | 0.00 | 76 | 1002.6 |
| 20260510015041 | 14 | 242 | 14.5 | 24.1 | 0.00 | 0.00 | 0.00 | 76 | 1002.7 |
| 20260510013033 | 14 | 234 | 14.5 | 29.0 | 0.00 | 0.00 | 0.00 | 75 | 1003.2 |
| 20260510012023 | 14 | 163 | 6.4 | 22.5 | 0.00 | 0.00 | 0.00 | 74 | 1003.1 |
| 20260510011033 | 15 | 203 | 3.2 | 12.9 | 0.00 | 0.00 | 0.00 | 74 | 1003.1 |
| 20260510010020 | 15 | 234 | 11.3 | 24.1 | 0.00 | 0.00 | 0.00 | 73 | 1003.2 |
| 20260510004023 | 15 | 201 | 6.4 | 27.4 | 0.00 | 0.00 | 0.00 | 69 | 1003.1 |
| 20260510003019 | 15 | 190 | 14.5 | 29.0 | 0.00 | 0.00 | 0.00 | 68 | 1003.1 |
| 20260510002020 | 15 | 190 | 8.0 | 22.5 | 0.00 | 0.00 | 0.00 | 67 | 1003.3 |
| 20260510001019 | 16 | 210 | 14.5 | 24.1 | 0.00 | 0.00 | 0.00 | 67 | 1003.4 |
| 20260510000031 | 16 | 183 | 14.5 | 24.1 | 0.00 | 0.00 | 0.00 | 67 | 1003.6 |
| 20260509235020 | 16 | 196 | 11.3 | 22.5 | 0.00 | 0.00 | 0.00 | 67 | 1003.8 |
| 20260509234033 | 16 | 197 | 14.5 | 24.1 | 0.00 | 0.00 | 0.00 | 67 | 1003.9 |
| 20260509233020 | 16 | 169 | 14.5 | 33.8 | 0.00 | 0.00 | 0.00 | 67 | 1004.0 |
| 20260509232020 | 16 | 246 | 9.7 | 24.1 | 0.00 | 0.00 | 0.00 | 66 | 1004.1 |
| 20260509231025 | 16 | 162 | 24.1 | 43.5 | 0.00 | 0.00 | 0.00 | 66 | 1004.1 |
| 20260509230023 | 17 | 149 | 14.5 | 32.2 | 0.00 | 0.00 | 0.00 | 64 | 1003.9 |
| 20260509225034 | 17 | 144 | 17.7 | 29.0 | 0.00 | 0.00 | 0.00 | 62 | 1003.8 |
| 20260509224140 | 17 | 206 | 24.1 | 41.8 | 0.00 | 0.00 | 0.00 | 61 | 1003.8 |
| 20260509223022 | 17 | 200 | 16.1 | 24.1 | 0.00 | 0.00 | 0.00 | 55 | 1003.6 |
| 20260509222022 | 17 | 173 | 9.7 | 27.4 | 0.00 | 0.00 | 0.00 | 53 | 1003.6 |
| 20260509221021 | 18 | 179 | 20.9 | 33.8 | 0.00 | 0.00 | 0.00 | 52 | 1003.4 |
| 20260509220038 | 18 | 155 | 16.1 | 27.4 | 0.00 | 0.00 | 0.00 | 51 | 1003.3 |
| 20260509215023 | 18 | 196 | 16.1 | 24.1 | 0.00 | 0.00 | 0.00 | 52 | 1003.5 |
| 20260509214021 | 18 | 153 | 19.3 | 37.0 | 0.00 | 0.00 | 0.00 | 51 | 1003.7 |
| 20260509213024 | 18 | 168 | 17.7 | 38.6 | 0.00 | 0.00 | 0.00 | 51 | 1003.8 |
| 20260509212028 | 19 | 204 | 20.9 | 33.8 | 0.00 | 0.00 | 0.00 | 49 | 1003.8 |
| 20260509211023 | 19 | 193 | 19.3 | 38.6 | 0.00 | 0.00 | 0.00 | 48 | 1003.7 |
| 20260509210020 | 19 | 155 | 20.9 | 37.0 | 0.00 | 0.00 | 0.00 | 47 | 1003.8 |
| 20260509205020 | 19 | 249 | 19.3 | 37.0 | 0.00 | 0.00 | 0.00 | 46 | 1003.8 |
| 20260509204022 | 20 | 166 | 14.5 | 29.0 | 0.00 | 0.00 | 0.00 | 43 | 1003.9 |
| 20260509203033 | 19 | 183 | 25.7 | 57.9 | 0.00 | 0.00 | 0.00 | 43 | 1004.0 |
| 20260509201028 | 21 | 201 | 22.5 | 37.0 | 0.00 | 0.00 | 0.00 | 40 | 1004.1 |
| 20260509200031 | 20 | 199 | 24.1 | 43.5 | 0.00 | 0.00 | 0.00 | 37 | 1004.1 |
| 20260509195125 | 21 | 144 | 19.3 | 46.7 | 0.00 | 0.00 | 0.00 | 37 | 1004.2 |
| 20260509194035 | 20 | 196 | 16.1 | 27.4 | 0.00 | 0.00 | 0.00 | 39 | 1004.3 |
| 20260509193024 | 20 | 221 | 17.7 | 46.7 | 0.00 | 0.00 | 0.00 | 39 | 1004.5 |
| 20260509192125 | 21 | 182 | 20.9 | 33.8 | 0.00 | 0.00 | 0.00 | 37 | 1004.5 |
| 20260509191020 | 21 | 179 | 17.7 | 32.2 | 0.00 | 0.00 | 0.00 | 36 | 1004.7 |
| 20260509190031 | 21 | 135 | 22.5 | 37.0 | 0.00 | 0.00 | 0.00 | 36 | 1004.8 |
| 20260509185036 | 21 | 244 | 27.4 | 51.5 | 0.00 | 0.00 | 0.00 | 36 | 1004.9 |
| 20260509184121 | 20 | 216 | 19.3 | 32.2 | 0.00 | 0.00 | 0.00 | 37 | 1005.2 |
| 20260509183026 | 21 | 197 | 20.9 | 33.8 | 0.00 | 0.00 | 0.00 | 37 | 1005.5 |
| 20260509181030 | 21 | 208 | 16.1 | 24.1 | 0.00 | 0.00 | 0.00 | 37 | 1005.7 |
| 20260509180120 | 21 | 197 | 20.9 | 38.6 | 0.00 | 0.00 | 0.00 | 36 | 1005.9 |
| 20260509175029 | 20 | 243 | 14.5 | 27.4 | 0.00 | 0.00 | 0.00 | 38 | 1006.0 |
| 20260509174027 | 20 | 201 | 20.9 | 43.5 | 0.00 | 0.00 | 0.00 | 37 | 1006.1 |
| 20260509173026 | 21 | 201 | 14.5 | 32.2 | 0.00 | 0.00 | 0.00 | 37 | 1006.0 |
| 20260509172021 | 20 | 202 | 22.5 | 53.1 | 0.00 | 0.00 | 0.00 | 37 | 1006.2 |
| 20260509171022 | 20 | 197 | 20.9 | 46.7 | 0.00 | 0.00 | 0.00 | 37 | 1006.4 |
| 20260509170119 | 20 | 205 | 22.5 | 37.0 | 0.00 | 0.00 | 0.00 | 37 | 1006.7 |
| 20260509165019 | 20 | 177 | 16.1 | 29.0 | 0.00 | 0.00 | 0.00 | 37 | 1006.8 |
| 20260509164029 | 20 | 191 | 19.3 | 37.0 | 0.00 | 0.00 | 0.00 | 37 | 1007.0 |
| 20260509163029 | 20 | 198 | 11.3 | 19.3 | 0.00 | 0.00 | 0.00 | 38 | 1007.1 |
| 20260509162026 | 20 | 216 | 17.7 | 29.0 | 0.00 | 0.00 | 0.00 | 38 | 1007.2 |
| 20260509161033 | 19 | 187 | 24.1 | 41.8 | 0.00 | 0.00 | 0.00 | 37 | 1007.4 |
| 20260509160025 | 18 | 160 | 24.1 | 37.0 | 0.00 | 0.00 | 0.00 | 39 | 1007.7 |
| 20260509155032 | 19 | 181 | 22.5 | 33.8 | 0.00 | 0.00 | 0.00 | 38 | 1007.9 |
| 20260509154020 | 18 | 196 | 17.7 | 33.8 | 0.00 | 0.00 | 0.00 | 40 | 1008.1 |
| 20260509153021 | 18 | 208 | 14.5 | 19.3 | 0.00 | 0.00 | 0.00 | 41 | 1008.4 |
| 20260509152032 | 18 | 209 | 16.1 | 33.8 | 0.00 | 0.00 | 0.00 | 43 | 1008.5 |
| 20260509151025 | 18 | 178 | 14.5 | 29.0 | 0.00 | 0.00 | 0.00 | 44 | 1008.7 |
| 20260509150035 | 18 | 188 | 11.3 | 19.3 | 0.00 | 0.00 | 0.00 | 45 | 1008.8 |
| 20260509145023 | 17 | 110 | 17.7 | 32.2 | 0.00 | 0.00 | 0.00 | 46 | 1008.9 |
| 20260509144030 | 17 | 175 | 9.7 | 19.3 | 0.00 | 0.00 | 0.00 | 49 | 1008.9 |
| 20260509143020 | 17 | 153 | 12.9 | 32.2 | 0.00 | 0.00 | 0.00 | 51 | 1009.0 |
| 20260509142019 | 16 | 154 | 4.8 | 9.7 | 0.00 | 0.00 | 0.00 | 53 | 1009.2 |
| 20260509141122 | 16 | 201 | 3.2 | 12.9 | 0.00 | 0.00 | 0.00 | 54 | 1009.2 |
| 20260509140028 | 15 | 165 | 9.7 | 14.5 | 0.00 | 0.00 | 0.00 | 55 | 1009.2 |
| 20260509135025 | 14 | 159 | 9.7 | 24.1 | 0.00 | 0.00 | 0.00 | 56 | 1009.3 |
| 20260509134023 | 13 | 151 | 6.4 | 17.7 | 0.00 | 0.00 | 0.00 | 57 | 1009.4 |
| 20260509133022 | 12 | 166 | 9.7 | 24.1 | 0.00 | 0.00 | 0.00 | 58 | 1009.5 |
| 20260509132023 | 12 | 198 | 3.2 | 19.3 | 0.00 | 0.00 | 0.00 | 58 | 1009.7 |
| 20260509131028 | 11 | 214 | 8.0 | 17.7 | 0.00 | 0.00 | 0.00 | 59 | 1009.7 |
| 20260509130037 | 11 | 182 | 9.7 | 24.1 | 0.00 | 0.00 | 0.00 | 60 | 1009.9 |
| 20260509125021 | 11 | 160 | 4.8 | 12.9 | 0.00 | 0.00 | 0.00 | 61 | 1009.9 |
| 20260509124126 | 10 | 159 | 4.8 | 12.9 | 0.00 | 0.00 | 0.00 | 61 | 1010.0 |
| 20260509123023 | 10 | 172 | 6.4 | 19.3 | 0.00 | 0.00 | 0.00 | 63 | 1010.1 |
| 20260509122021 | 9 | 203 | 6.4 | 12.9 | 0.00 | 0.00 | 0.00 | 65 | 1010.2 |
| 20260509121121 | 8 | 208 | 6.4 | 14.5 | 0.00 | 0.00 | 0.00 | 67 | 1010.1 |
| 20260509120024 | 7 | 167 | 6.4 | 17.7 | 0.00 | 0.00 | 0.00 | 68 | 1010.1 |
| 20260509115036 | 7 | 184 | 4.8 | 14.5 | 0.00 | 0.00 | 0.00 | 70 | 1010.1 |
| 20260509114047 | 6 | 198 | 4.8 | 9.7 | 0.00 | 0.00 | 0.00 | 71 | 1010.0 |
| 20260509113033 | 6 | 162 | 11.3 | 19.3 | 0.00 | 0.00 | 0.00 | 73 | 1009.9 |
| 20260509112025 | 5 | 199 | 4.8 | 12.9 | 0.00 | 0.00 | 0.00 | 75 | 1009.9 |
| 20260509111032 | 5 | 203 | 0.0 | 4.8 | 0.00 | 0.00 | 0.00 | 76 | 1009.8 |
| 20260509110020 | 5 | 196 | 8.0 | 17.7 | 0.00 | 0.00 | 0.00 | 77 | 1009.8 |
| 20260509104030 | 3 | 214 | 1.6 | 8.0 | 0.00 | 0.00 | 0.00 | 82 | 1009.6 |
| 20260509103146 | 2 | 0.0 | 0.0 | 0.00 | 0.00 | 0.00 | 85 | 1009.6 | |
| 20260509102023 | 2 | 0.0 | 0.0 | 0.00 | 0.00 | 0.00 | 85 | 1009.6 | |
| 20260509101028 | 2 | 0.0 | 0.0 | 0.00 | 0.00 | 0.00 | 85 | 1009.6 | |
| 20260509100023 | 2 | 0.0 | 0.0 | 0.00 | 0.00 | 0.00 | 85 | 1009.6 | |
| 20260509095021 | 2 | 0.0 | 8.0 | 0.00 | 0.00 | 0.00 | 85 | 1009.6 | |
| 20260509094147 | 2 | 0.0 | 0.0 | 0.00 | 0.00 | 0.00 | 84 | 1009.6 | |
| 20260509092027 | 3 | 203 | 1.6 | 9.7 | 0.00 | 0.00 | 0.00 | 84 | 1009.5 |
| 20260509091021 | 3 | 225 | 3.2 | 12.9 | 0.00 | 0.00 | 0.00 | 84 | 1009.5 |
| 20260509085024 | 3 | 180 | 1.6 | 14.5 | 0.00 | 0.00 | 0.00 | 84 | 1009.5 |
| 20260509083029 | 3 | 180 | 1.6 | 8.0 | 0.00 | 0.00 | 0.00 | 84 | 1009.6 |
| 20260509082019 | 3 | 0.0 | 9.7 | 0.00 | 0.00 | 0.00 | 84 | 1009.6 | |
| 20260509081020 | 3 | 0.0 | 0.0 | 0.00 | 0.00 | 0.00 | 83 | 1009.6 | |
| 20260509080158 | 3 | 180 | 1.6 | 9.7 | 0.00 | 0.00 | 0.00 | 83 | 1009.6 |
| 20260509075025 | 3 | 0.0 | 0.0 | 0.00 | 0.00 | 0.00 | 82 | 1009.7 | |
| 20260509074033 | 3 | 0.0 | 0.0 | 0.00 | 0.00 | 0.00 | 82 | 1009.7 | |
| 20260509073024 | 3 | 178 | 3.2 | 9.7 | 0.00 | 0.00 | 0.00 | 82 | 1009.6 |
| 20260509072026 | 4 | 190 | 1.6 | 12.9 | 0.00 | 0.00 | 0.00 | 81 | 1009.6 |